Aurora, CO

2:18 AM MDT on May 25, 2017 (GMT -0600)
Buckley Air Force Base

Weather History for KBKF - February, 2013

Change the Weather History Date:

Monday, February 4, 2013

  Actual Average Record
Temperature  
Mean Temperature 40 °F -  
Max Temperature 53 °F 41 °F 68 °F (1999)
Min Temperature 26 °F 19 °F -7 °F (2014)
Degree Days  
Heating Degree Days 26    
Moisture  
Dew Point 7 °F    
Average Humidity 30    
Maximum Humidity 51    
Minimum Humidity 12    
Precipitation  
Precipitation 0.00 in - - ()
Sea Level Pressure  
Sea Level Pressure 29.89 in    
Wind  
Wind Speed 9 mph (SW)    
Max Wind Speed 18 mph    
Max Gust Speed 29 mph    
Averages and records for this station are not official NWS values.
T = Trace of Precipitation, MM = Missing Value Source: NWS Daily Summary

Daily Weather History Graph

Daily Weather History Graph

Search for Another Location

Airport or City:

Trip Planner

Search our weather history database for the weather conditions in past years. The results will help you decide how hot, cold, wet, or windy it might be!

Date:

Astronomy

Feb. 04, 2013 Rise Set
Actual Time 7:03 AM MST 5:22 PM MST
Civil Twilight 6:35 AM MST 5:51 PM MST
Nautical Twilight 6:03 AM MST 6:23 PM MST
Astronomical Twilight 5:31 AM MST 6:54 PM MST
Moon 1:41 AM MST (2/4) 11:48 AM MST (2/4)
Length of Visible Light 11h 15m
Length of Day
10h 19m
Last Quarter, 36% of the Moon is Illuminated
Feb 4
Last Quarter
Feb 10
New
Feb 17
First Quarter
Feb 25
Full
Mar 4
Last Quarter

Hourly Weather History & Observations

Time (MST) Temp. Windchill Dew Point Humidity Pressure Visibility Wind Dir Wind Speed Gust Speed Precip Events Conditions
12:55 AM 30.2 °F 22.6 °F 10.4 °F 44% 29.91 in 25.0 mi South 8.1 mph - N/A   Clear
1:55 AM 28.4 °F 22.2 °F 8.6 °F 43% 29.92 in 25.0 mi SSW 5.8 mph - N/A   Clear
3:55 AM 26.6 °F 18.2 °F 8.6 °F 47% 29.95 in 25.0 mi South 8.1 mph - N/A   Clear
4:55 AM 26.6 °F 15.7 °F 8.6 °F 47% 29.95 in 25.0 mi SSE 12.7 mph - N/A   Clear
5:55 AM 26.6 °F 15.2 °F 10.4 °F 51% 29.97 in 25.0 mi SSE 13.8 mph - N/A   Clear
6:55 AM 26.6 °F 15.2 °F 10.4 °F 51% 29.97 in 70.0 mi South 13.8 mph - N/A   Partly Cloudy
7:55 AM 30.2 °F 21.3 °F 12.2 °F 47% 29.97 in 70.0 mi South 10.4 mph - N/A   Scattered Clouds
8:55 AM 41.0 °F 34.3 °F 8.6 °F 26% 29.92 in 70.0 mi South 11.5 mph - N/A   Mostly Cloudy
9:55 AM 44.6 °F 39.7 °F 6.8 °F 21% 29.90 in 70.0 mi SSW 9.2 mph - N/A   Mostly Cloudy
10:55 AM 46.4 °F 44.3 °F 6.8 °F 20% 29.89 in 70.0 mi South 4.6 mph - N/A   Mostly Cloudy
11:55 AM 50.0 °F - 1.4 °F 14% 29.87 in 70.0 mi WNW 4.6 mph - N/A   Mostly Cloudy
12:55 PM 51.8 °F - 3.2 °F 14% 29.82 in 70.0 mi WNW 17.3 mph - N/A   Mostly Cloudy
1:55 PM 53.6 °F - 1.4 °F 12% 29.82 in 70.0 mi West 9.2 mph - N/A   Mostly Cloudy
2:55 PM 53.6 °F - 1.4 °F 12% 29.81 in 70.0 mi West 12.7 mph - N/A   Mostly Cloudy
3:55 PM 50.0 °F - 1.4 °F 14% 29.84 in 70.0 mi WNW 8.1 mph - N/A   Mostly Cloudy
4:55 PM 48.2 °F - 3.2 °F 16% 29.84 in 25.0 mi WNW 16.1 mph 28.8 mph N/A   Mostly Cloudy
5:55 PM 46.4 °F 39.2 °F 6.8 °F 20% 29.87 in 25.0 mi WNW 18.4 mph 25.3 mph N/A   Mostly Cloudy
6:55 PM 41.0 °F 35.8 °F 8.6 °F 26% 29.92 in 25.0 mi WNW 8.1 mph - N/A   Mostly Cloudy
7:55 PM 41.0 °F 35.8 °F 8.6 °F 26% 29.91 in 25.0 mi West 8.1 mph - N/A   Mostly Cloudy
8:55 PM 41.0 °F 37.1 °F 8.6 °F 26% 29.88 in 25.0 mi WSW 5.8 mph - N/A   Scattered Clouds
9:55 PM 41.0 °F 37.1 °F 10.4 °F 29% 29.85 in 25.0 mi WSW 5.8 mph - N/A   Scattered Clouds
10:55 PM 32.0 °F 27.5 °F 12.2 °F 44% 29.90 in 25.0 mi South 4.6 mph - N/A   Scattered Clouds
11:55 PM 32.0 °F 24.8 °F 12.2 °F 44% 29.88 in 25.0 mi SSW 8.1 mph - N/A   Clear